Home   Weather   Okayama   Past weeks

Flag for Japan Past Weather in Okayama, Japan — Yesterday and Last 2 Weeks

Now
75 °F

Partly cloudy.


Feels Like: 75 °F
Forecast: 73 / 83 °F
Wind: 5 mph from North

Location: Okayama Airport

Current Time: Sep 26, 2016 at 7:33:12 PM

Latest Report: Sep 26, 2016 at 7:00 PM


Visibility: N/A

Pressure: 30.07 "Hg

Humidity: 89%

Dew Point: 72 °F

Location of OkayamaLocation

Past Weather in Okayama — Graph

°F

Okayama Temperature Yesterday

Maximum temperature yesterday: 75 °F (at 10:00 AM)
Minimum temperature yesterday: 70 °F (at 7:00 AM)
Average temperature yesterday: 72 °F

High & Low Weather Summary for the Past Weeks

 TemperatureHumidityPressure
High82 °F (Sep 16, 3:00 PM)100% (Sep 18, 7:00 AM)30.12 "Hg (Sep 18, 7:00 AM)
Low64 °F (Sep 19, 8:00 PM)51% (Sep 11, 8:00 PM)29.56 "Hg (Sep 20, 12:00 PM)
Average73 °F82%29.96 "Hg
* Reported Sep 11 6:00 PM — Sep 26 6:00 PM, Okayama, Weather by CustomWeather, © 2016

Note: Actual official high and low records may vary slightly from our data, if they occured in-between our weather recording intervals... More about our weather records

Advertising

Okayama Weather History for the Previous 24 Hours

Scroll right to see more
 ConditionsComfort  
Time TempWeatherWind HumidityBarometerVisibility
6:00 PM
Mon, Sep 26
73 °FPassing clouds.6 mph94%30.07 "HgN/A
5:00 PM75 °FScattered clouds.5 mph89%30.04 "HgN/A
4:00 PM75 °FBroken clouds.3 mph89%30.04 "HgN/A
3:00 PM75 °FSprinkles. Fog.6 mph89%30.04 "Hg3 mi
2:00 PM73 °FSprinkles. Fog.5 mph94%30.07 "Hg3 mi
1:48 PM73 °FSprinkles. Fog.5 mph94%30.07 "Hg3 mi
1:00 PM73 °FSprinkles. Fog.6 mph94%30.07 "Hg3 mi
12:00 PM73 °FSprinkles. Fog.3 mph89%30.09 "Hg3 mi
11:00 AM72 °FSprinkles. Partly sunny.3 mph100%30.09 "Hg4 mi
10:00 AM72 °FRain showers. Fog.7 mph94%30.12 "Hg2 mi
9:00 AM72 °FSprinkles. Broken clouds.7 mph94%30.12 "Hg4 mi
8:00 AM72 °FRain showers. Fog.2 mph88%30.09 "Hg2 mi
7:00 AM70 °FRain showers. Fog.3 mph94%30.09 "Hg3 mi
6:46 AM70 °FRain showers. Fog.3 mph94%30.09 "Hg3 mi
9:00 PM
Sun, Sep 25
70 °FPartly cloudy.5 mph94%30.07 "HgN/A
8:00 PM72 °FSprinkles. Partly cloudy.6 mph88%30.07 "Hg4 mi
7:00 PM70 °FSprinkles. Partly cloudy.7 mph94%30.07 "Hg4 mi
Weather by CustomWeather, © 2016

See weather overviewHow to use our weather pages